Location: Arena
(42.5007°N, 9.4650°E)
Time: 06:53:05
(UTC+00:00)

Cosmos 1741 Rocket - Visible Passes

Search period start: 11 August 2020 00:00
Search period end: 21 August 2020 00:00
Orbit: 761 x 783 km, 74.0° (Epoch: 10 August)

Date Brightness Start Highest point End Pass type
(mag) Time Alt. Az. Time Alt. Az. Time Alt. Az.
11 Aug 5.0 20:00:31 24° ESE 20:01:21 25° E 20:05:34 10° NE visible
11 Aug 5.1 21:40:48 26° WSW 21:43:14 42° WNW 21:48:14 10° N visible
12 Aug 5.6 19:24:14 13° ESE 19:25:46 15° E 19:28:36 10° ENE visible
12 Aug 4.2 21:04:29 28° SW 21:07:15 68° WNW 21:12:32 10° NNE visible
12 Aug 6.9 22:49:23 10° WNW 22:50:27 11° NW 22:51:32 10° NW visible
13 Aug 3.9 20:27:52 21° S 20:31:22 74° ESE 20:36:39 10° NNE visible
13 Aug 6.6 22:10:50 10° W 22:14:08 17° NW 22:17:27 10° NNW visible
14 Aug 4.3 19:50:39 10° S 19:55:35 44° ESE 20:00:35 10° NNE visible
14 Aug 6.0 21:33:37 10° WSW 21:37:56 25° WNW 21:42:17 10° N visible
15 Aug 4.9 19:15:36 10° SSE 19:19:54 26° E 19:24:16 10° NE visible
15 Aug 5.3 20:56:56 10° SW 21:01:50 39° WNW 21:06:48 10° N visible
16 Aug 4.4 20:20:39 10° SSW 20:25:50 64° WNW 20:31:07 10° NNE visible
17 Aug 3.9 19:44:43 10° SSW 19:49:57 79° ESE 19:55:16 10° NNE visible
17 Aug 6.8 21:29:40 10° W 21:32:47 16° NW 21:35:55 10° NNW visible
18 Aug 4.2 19:09:10 10° S 19:14:10 47° ESE 19:19:14 10° NNE visible
18 Aug 6.3 20:52:21 10° WSW 20:56:33 24° WNW 21:00:49 10° N visible
19 Aug 7.2 03:56:12 10° NNE 03:59:05 14° NE 04:01:57 10° E visible
19 Aug 5.5 20:15:36 10° SW 20:20:27 37° WNW 20:25:21 10° N visible
20 Aug 4.6 19:39:16 10° SSW 19:44:26 60° WNW 19:49:42 10° NNE visible
